Tarawa Terrace, NC

1:15 AM EDT on September 01, 2016 (GMT -0400)
New River Marine Corps Air Station

Weather History for KNCA - August, 2013

Change the Weather History Date:

Friday, August 16, 2013

  Actual Average Record
Temperature  
Mean Temperature 70 °F -  
Max Temperature 73 °F 86 °F 95 °F (2005)
Min Temperature 66 °F 69 °F 64 °F (2006)
Cooling Degree Days 4    
Growing Degree Days 20 (Base 50)    
Moisture  
Dew Point 66 °F    
Average Humidity 88    
Maximum Humidity 100    
Minimum Humidity 78    
Precipitation  
Precipitation 0.01 in - - ()
Sea Level Pressure  
Sea Level Pressure 30.11 in    
Wind  
Wind Speed 7 mph (NNE)    
Max Wind Speed 10 mph    
Max Gust Speed -    
Visibility 10 miles    
Events Rain    
Averages and records for this station are not official NWS values.
T = Trace of Precipitation, MM = Missing Value Source: NWS Daily Summary

Daily Weather History Graph

Daily Weather History Graph

Search for Another Location

Airport or City:

Trip Planner

Search our weather history database for the weather conditions in past years. The results will help you decide how hot, cold, wet, or windy it might be!

Date:

Astronomy

Aug. 16, 2013 Rise Set
Actual Time 6:31 AM EDT 7:56 PM EDT
Civil Twilight 6:04 AM EDT 8:22 PM EDT
Nautical Twilight 5:32 AM EDT 8:54 PM EDT
Astronomical Twilight 4:59 AM EDT 9:27 PM EDT
Moon 4:08 PM EDT (8/16) 1:36 AM EDT (8/16)
Length of Visible Light 14h 18m
Length of Day
13h 25m
Waxing Gibbous, 74% of the Moon is Illuminated
Aug 16
Waxing Gibbous
Aug 20
Full
Aug 28
Last Quarter
Sep 5
New
Sep 12
First Quarter

Hourly Weather History & Observations

Time (EDT) Temp. Dew Point Humidity Pressure Visibility Wind Dir Wind Speed Gust Speed Precip Events Conditions
12:56 AM 66.0 °F 64.0 °F 93% 30.10 in 10.0 mi NNE 5.8 mph - N/A   Overcast
2:23 AM 66.2 °F 64.4 °F 94% 30.07 in 9.0 mi NNW 6.9 mph - 0.00 in Rain Light Rain
2:51 AM 66.2 °F 66.2 °F 100% 30.06 in 10.0 mi North 4.6 mph - 0.01 in Rain Light Rain
3:56 AM 68.0 °F 66.0 °F 93% 30.07 in 8.0 mi North 6.9 mph - 0.00 in   Overcast
4:46 AM 68.0 °F 66.2 °F 94% 30.07 in 7.0 mi North 8.1 mph - 0.00 in   Overcast
4:56 AM 68.0 °F 66.0 °F 93% 30.07 in 9.0 mi North 8.1 mph - 0.00 in   Overcast
6:56 AM 68.0 °F 66.0 °F 93% 30.10 in 10.0 mi North 6.9 mph - N/A   Overcast
7:56 AM 68.0 °F 66.0 °F 93% 30.11 in 10.0 mi NNE 9.2 mph - N/A   Overcast
8:16 AM 68.0 °F 66.2 °F 94% 30.10 in 10.0 mi NNE 6.9 mph - N/A   Overcast
8:56 AM 69.1 °F 66.9 °F 93% 30.13 in 10.0 mi North 6.9 mph - N/A   Overcast
9:56 AM 70.0 °F 66.9 °F 90% 30.13 in 10.0 mi NNE 4.6 mph - N/A   Overcast
10:56 AM 72.0 °F 66.9 °F 84% 30.14 in 10.0 mi Variable 6.9 mph - N/A   Overcast
11:39 AM 71.6 °F 66.2 °F 83% 30.13 in 10.0 mi North 8.1 mph - N/A   Overcast
11:56 AM 72.0 °F 66.9 °F 84% 30.13 in 10.0 mi North 10.4 mph - N/A   Overcast
12:56 PM 72.0 °F 68.0 °F 87% 30.12 in 10.0 mi NNE 9.2 mph - N/A   Overcast
1:56 PM 72.0 °F 66.9 °F 84% 30.12 in 8.0 mi North 9.2 mph - N/A Rain Light Rain
2:56 PM 73.9 °F 68.0 °F 82% 30.12 in 9.0 mi NNE 8.1 mph - 0.00 in   Overcast
3:56 PM 73.0 °F 66.9 °F 81% 30.10 in 10.0 mi NNE 8.1 mph - N/A   Overcast
4:15 PM 73.4 °F 66.2 °F 78% 30.10 in 10.0 mi NE 5.8 mph - N/A   Overcast
4:56 PM 73.0 °F 68.0 °F 84% 30.12 in 10.0 mi NNW 10.4 mph - N/A   Overcast
5:56 PM 72.0 °F 66.9 °F 84% 30.12 in 10.0 mi North 6.9 mph - N/A   Overcast
6:56 PM 71.1 °F 66.0 °F 84% 30.11 in 10.0 mi NE 10.4 mph - N/A   Overcast
7:56 PM 71.1 °F 66.9 °F 87% 30.12 in 10.0 mi NNE 4.6 mph - N/A   Overcast
8:56 PM 71.1 °F 66.9 °F 87% 30.13 in 10.0 mi NNE 4.6 mph - N/A   Overcast
9:56 PM 70.0 °F 66.9 °F 90% 30.16 in 9.0 mi North 3.5 mph - 0.01 in Rain Light Rain
10:36 PM 69.8 °F 66.2 °F 88% 30.15 in 10.0 mi North 8.1 mph - 0.00 in   Overcast
10:56 PM 69.1 °F 66.0 °F 90% 30.15 in 10.0 mi North 5.8 mph - 0.00 in   Overcast
11:56 PM 69.1 °F 66.0 °F 90% 30.15 in 10.0 mi North 5.8 mph - N/A   Overcast